SL-14 DEB, 45459

Orbit data source: Space-Track

SL-14 DEB, 45459 is space debris in LEO originally from a launch on Thu, 15 Aug 1991 UTC launched from the Plesetsk Missile And Space Complex (PKMTR). Debris objects in space refer to the collection of defunct objects orbiting the Earth. Examples of debris include non-operational satellites, rocket bodies, and fragments generated from explosions, collisions, or faulty payload assembly.

Loading next visibility...
Identifier
45459, 1991-056CT
Orbit
LEO
Country
Flag of CISCIS
Related business
Manufacturer
Unknown
Mission
Spacecraft
Bus & Motor
Unknown
Mass
Unknown
Launch date (UTC)
1991-08-15 (35 years ago)
Launch vehicle
Unknown
Launch site
Plesetsk Missile And Space Complex (PKMTR)
Object type
Payload
Rocket body
Debris
Shape & HBR
Unknown shape, 0.1 m
Radar Cross Section
Small (<0.1 m²)

Expand to show TLE details & history
Last TLE update: 2 days ago

TLE from 2 days ago
0 SL-14 DEB
1 45459U 91056CT  26126.86246109  .00010661  00000-0  91292-2 0  9990
2 45459  82.5955  77.4507 0116641 208.3016 151.1776 13.83717920170728
Epoch: 2026-05-06T20:41Z
TLE epoch observation values (Epoch: 2026-05-06T20:41:56.638Z)
Latitude
-0.00007°
Longitude
-97.75216°
Altitude
1,028.769 km
Speed
7.3 km/s
True Right ascension
05h 09m 48s
True Declination
0° 00' 00"
Sunlit
Object was in daylight at epoch
Visualization orbit readout
Latitude
Unknown
Longitude
Unknown
Altitude
Unknown
Speed
Unknown
Apparent Right ascension
Unknown
Apparent Declination
Unknown
Sunlit
N/A
Visualization observer readout
Local Sidereal Time
21:58:31
Azimuth
Unknown
Elevation
Unknown
Doppler factor
Unknown
Orbital elements
Apogee altitude
1,033.33 km
Perigee altitude
862.428 km
Semi-major axis
7,326.016 km
Eccentricity
0.01166
Inclination
82.5955°
RAAN
77.4507°
Arg. of periapsis
208.3016°
True anomaly
151.81383°
Mean anomaly
151.1776°
Eccentric anomaly
151.49652°
Mean motion
3.46132 °/min
Orbital period
104.01 mins
BSTAR
0.0091292
Loading maneuver chart data...
Computing Atmospheric mass density...
Loading historical data...
Loading historical data...
Loading historical data...
Loading historical data...
Loading historical data...
Loading historical data...
Loading historical data...

Documentation

Showing up to 5 results
|